[[{"header":{"parameterUnit":"m.s-1","parameterCategory":1,"la1":30.2991,"la2":30.254,"lo1":-89.0895,"lo2":-89.0444,"dy":0.0017,"dx":0.0017,"nx":28,"ny":28,"refTime":"2023-08-20T21:00:00:Z","depth":0,"parameterNumber":2,"parameterNumberName":"U-component_of_WINDS"},"data":[0,0,0,0,0,0,0,0,0,0,0,0,0,0,0,0,0,0,0,0,0,0,0,0,0,0,0,0,0,0,0,0,0,0,0,0,0,0,0,0,0,0,0,0,0,0,0,0,0,0,0,0,0,0,0,0,0,0,-2.0119,-2.0118,0,-1.9993,-1.9991,-1.999,-1.9864,-1.9862,-1.986,-1.9859,-1.9729,-1.9728,-1.9726,0,0,0,0,0,0,0,0,0,0,0,0,0,-2.0251,-2.0249,-2.0119,-2.0118,-2.0116,-1.9993,-1.9991,-1.999,-1.9864,-1.9862,-1.986,-1.9858,-1.973,-1.9728,-1.9726,0,0,0,0,0,0,0,0,0,0,0,0,0,-2.0166,-2.0248,-2.0119,-2.0038,-2.003,-1.9993,-1.9991,-1.9989,-1.9864,-1.9862,-1.9859,-1.9857,-1.9731,-1.9728,-1.9725,-1.9759,0,0,-1.9717,-1.9715,0,0,0,0,0,0,0,0,-2.0171,-2.0161,-2.0052,-2.0044,-2.0034,-1.9941,-1.999,-1.9912,-1.9865,-1.9927,-1.9859,-1.9856,-1.9802,-1.9793,-1.9775,-1.9752,-1.9747,-1.9716,-1.9715,-1.9714,-1.9713,0,0,0,0,0,0,0,-2.0177,-2.0166,-2.0069,-2.005,-2.004,-2.0008,-1.9993,-1.9975,-1.988,-1.9922,-1.9912,-1.9899,-1.9797,-1.9778,-1.9771,-1.9745,-1.9716,-1.9714,-1.9712,-1.9711,-1.9743,-1.9746,0,0,0,0,0,0,-2.0195,-2.0172,-2.0073,-2.0065,-2.0098,-2.0008,-1.9991,-1.9974,-1.988,-1.9863,-1.9901,-1.9893,-1.9784,-1.9774,-1.9766,-1.9799,-1.9714,-1.9711,-1.9709,-1.9741,-1.9744,-1.9747,0,0,0,0,0,0,-2.0199,-2.0188,-2.0078,-2.0116,-2.01,-2.0008,-1.999,-1.9973,-1.9954,-1.9865,-1.9847,-1.99,-1.9782,-1.977,-1.9761,-1.9792,-1.971,-1.9707,-1.9738,-1.9742,-1.9745,-1.9865,0,0,0,0,0,0,-2.0203,-2.019,-2.0201,-2.0117,-2.0098,-2.0076,-1.9991,-1.9972,-1.9949,-1.9938,-1.9859,-1.9843,-1.9779,-1.9766,-1.9759,-1.9787,-1.9705,-1.9735,-1.9739,-1.9744,-1.9858,-1.9872,-1.9885,0,0,0,0,0,-2.0208,-2.024,-2.0203,-2.0191,-2.0111,-2.0078,-2.0067,-1.9993,-1.9952,-1.9963,-1.9906,-1.9845,-1.979,-1.9766,-1.9757,-1.9785,-1.9732,-1.9738,-1.9744,-1.9851,-1.9869,-1.9884,0,0,0,0,0,0,-2.033,-2.0228,-2.0185,-2.0191,-2.0144,-2.0057,-2.0068,-2.0014,-1.9978,-1.9969,-1.9878,-1.9861,-1.9863,-1.9823,-1.9798,-1.9812,-1.9753,-1.9757,-1.9838,-1.9854,-1.9868,-1.9877,-1.9703,0,0,0,0,0,-2.0358,-2.034,-2.0251,-2.0265,-2.0243,-2.0161,-2.0143,-2.009,-2.0038,-2.0018,-1.996,-1.9912,-1.9883,-1.9866,-1.9835,-1.9851,-1.9832,-1.9866,-1.9879,-1.9891,-1.9895,-1.9901,-1.9915,-1.9765,-1.9765,-1.9765,0,0,-2.0415,-2.0356,-2.0351,-2.0288,-2.0245,-2.0229,-2.0145,-2.013,-2.0117,-2.0015,-2.0003,-1.996,-1.99,-1.9904,-1.9902,-1.987,-1.9932,-1.9898,-1.9908,-1.9906,-1.9908,-1.9922,-1.9935,-1.9769,-1.9768,-1.9768,0,0,-2.051,-2.0464,-2.047,-2.043,-2.0367,-2.0311,-2.0313,-2.0234,-2.0201,-2.0187,-2.0111,-2.0094,-2.0047,-2.0007,-1.9981,-2.0062,-2.0005,-2.0054,-2.0125,-2.0131,-2.0143,-2.0153,-2.0182,-2.0193,-2.0059,-2.006,-2.006,0,-2.0588,-2.056,-2.048,-2.0471,-2.0446,-2.0353,-2.0358,-2.0323,-2.0253,-2.0238,-2.0203,-2.0142,-2.0095,-2.0089,-2.0109,-2.0091,-2.009,-2.0063,-2.0148,-2.0157,-2.0165,-2.0191,-2.0203,-2.0066,-2.0065,-2.0065,-2.0064,0,-2.066,-2.0642,-2.0654,-2.059,-2.0565,-2.0564,-2.0484,-2.0469,-2.0418,-2.0367,-2.0354,-2.0295,-2.025,-2.0245,-2.0195,-2.0231,-2.0213,-2.0165,-2.0103,-2.0187,-2.021,-2.022,-2.0075,-2.0073,-2.0071,-2.0069,0,0,-2.0828,-2.0719,-2.0725,-2.0695,-2.0619,-2.0603,-2.0597,-2.0553,-2.0543,-2.0498,-2.0491,-2.0453,-2.0408,-2.0378,-2.0323,-2.0329,-2.0397,-2.0279,-2.0276,-2.0303,-2.0433,-2.047,-2.0483,-2.0358,-2.036,-2.0361,-2.0438,0,-2.091,-2.0894,-2.0822,-2.0827,-2.0809,-2.0721,-2.0716,-2.0669,-2.0621,-2.0598,-2.0545,-2.052,-2.0461,-2.0443,-2.0445,-2.0388,-2.0421,-2.0381,-2.0351,-2.0351,-2.0368,-2.0495,-2.0534,-2.061,-2.0446,-2.0448,-2.0449,0,-2.1003,-2.0964,-2.0968,-2.0893,-2.0882,-2.0879,-2.0833,-2.0813,-2.0758,-2.0722,-2.069,-2.0628,-2.0617,-2.056,-2.0543,-2.0518,-2.0501,-2.0472,-2.0473,-2.0467,-2.0405,-2.0493,-2.0632,-2.0644,-2.0463,-2.0461,-2.046,0,-2.1126,-2.1074,-2.107,-2.1046,-2.0958,-2.0958,-2.0921,-2.0863,-2.0842,-2.0802,-2.0787,-2.0747,-2.0725,-2.0695,-2.0624,-2.0589,-2.0616,-2.0552,-2.0586,-2.0588,-2.0595,-2.0596,-2.0734,-2.0585,-2.0585,-2.0584,-2.0584,0,-2.1224,-2.123,-2.1124,-2.1121,-2.1125,-2.1042,-2.1048,-2.1003,-2.0952,-2.0939,-2.086,-2.085,-2.0757,-2.0736,-2.068,-2.0675,-2.0665,-2.0636,-2.0622,-2.0643,-2.0647,-2.0631,-2.0624,-2.0587,-2.0587,-2.0586,-2.0586,0,-2.1362,-2.129,-2.128,-2.1197,-2.1177,-2.1183,-2.1112,-2.1106,-2.1053,-2.1038,-2.1029,-2.0946,-2.0917,-2.0844,-2.0795,-2.0758,-2.0768,-2.074,-2.0787,-2.0777,-2.0815,-2.0812,-2.0947,-2.0961,-2.0804,-2.0806,-2.0807,0,-2.1429,-2.1432,-2.1349,-2.1335,-2.1302,-2.128,-2.1257,-2.1176,-2.1156,-2.1094,-2.1096,-2.106,-2.1028,-2.0986,-2.0921,-2.0884,-2.0855,-2.0904,-2.0849,-2.0871,-2.0855,-2.0856,-2.0856,-2.0917,-2.0919,-2.0921,-2.0922,0,-2.1557,-2.1522,-2.1493,-2.1452,-2.1428,-2.1392,-2.1351,-2.1344,-2.1252,-2.1234,-2.1204,-2.1179,-2.1129,-2.1095,-2.1048,-2.101,-2.0951,-2.094,-2.0946,-2.0968,-2.0995,-2.0981,-2.082,-2.0938,-2.0936,-2.0935,-2.0934,-2.0933,-2.1661,-2.1659,-2.1601,-2.1572,-2.1533,-2.1497,-2.1487,-2.1433,-2.1407,-2.136,-2.1314,-2.1289,-2.1233,-2.1163,-2.1129,-2.1108,-2.1078,-2.1086,-2.1088,-2.1091,-2.1101,-2.0999,-2.1099,-2.1099,-2.1098,-2.1098,-2.1097,0,-2.1785,-2.1743,-2.1717,-2.1663,-2.164,-2.1587,-2.1539,-2.1523,-2.1502,-2.1455,-2.1425,-2.139,-2.1357,-2.129,-2.1251,-2.1247,-2.1219,-2.1239,-2.1239,-2.1231,-2.1131,-2.113,-2.1263,-2.1263,-2.1263,-2.1263,-2.1263,-2.1263,-2.1847,-2.1841,-2.1799,-2.1773,-2.1731,-2.1705,-2.1683,-2.1649,-2.1611,-2.1576,-2.1548,-2.1505,-2.145,-2.1406,-2.1374,-2.1355,-2.1344,-2.1373,-2.1346,-2.1254,-2.1238,-2.1223,-2.1222,-2.1372,-2.1372,-2.1448,-2.1448,-2.1449]},{"header":{"parameterUnit":"m.s-1","parameterCategory":1,"la1":30.2991,"la2":30.254,"lo1":-89.0895,"lo2":-89.0444,"dy":0.0017,"dx":0.0017,"nx":28,"ny":28,"refTime":"2023-08-20T21:00:00:Z","depth":0,"parameterNumber":3,"parameterNumberName":"V-component_of_WINDS"},"data":[0,0,0,0,0,0,0,0,0,0,0,0,0,0,0,0,0,0,0,0,0,0,0,0,0,0,0,0,0,0,0,0,0,0,0,0,0,0,0,0,0,0,0,0,0,0,0,0,0,0,0,0,0,0,0,0,0,0,-1.0608,-1.0609,0,-1.0709,-1.071,-1.0711,-1.0745,-1.0745,-1.0744,-1.0744,-1.0844,-1.0847,-1.085,0,0,0,0,0,0,0,0,0,0,0,0,0,-1.044,-1.0443,-1.0608,-1.0609,-1.061,-1.0709,-1.071,-1.0712,-1.0745,-1.0745,-1.0744,-1.0744,-1.0843,-1.0847,-1.085,0,0,0,0,0,0,0,0,0,0,0,0,0,-1.0524,-1.0444,-1.0608,-1.0639,-1.0643,-1.0709,-1.071,-1.0712,-1.0745,-1.0745,-1.0744,-1.0744,-1.0842,-1.0846,-1.0851,-1.0891,0,0,-1.0865,-1.0867,0,0,0,0,0,0,0,0,-1.052,-1.0531,-1.0633,-1.0637,-1.0642,-1.0714,-1.0688,-1.0772,-1.0746,-1.0706,-1.0744,-1.0743,-1.0801,-1.0809,-1.0829,-1.0896,-1.09,-1.0865,-1.0868,-1.087,-1.0871,0,0,0,0,0,0,0,-1.0514,-1.0526,-1.0648,-1.0635,-1.064,-1.0647,-1.0658,-1.0704,-1.0756,-1.071,-1.0713,-1.0724,-1.0803,-1.0825,-1.0832,-1.0902,-1.0865,-1.0869,-1.0872,-1.0874,-1.1006,-1.1007,0,0,0,0,0,0,-1.0503,-1.0521,-1.0645,-1.0651,-1.0578,-1.0651,-1.0663,-1.0691,-1.0755,-1.0765,-1.0725,-1.0725,-1.0817,-1.0826,-1.0835,-1.0887,-1.087,-1.0874,-1.0877,-1.1006,-1.1006,-1.1007,0,0,0,0,0,0,-1.0499,-1.0514,-1.0641,-1.0587,-1.0604,-1.0654,-1.0685,-1.0694,-1.0715,-1.0767,-1.0776,-1.0737,-1.0817,-1.0829,-1.0877,-1.0891,-1.0876,-1.088,-1.1005,-1.1006,-1.1007,-1.099,0,0,0,0,0,0,-1.0494,-1.0512,-1.0529,-1.0587,-1.0606,-1.0682,-1.0686,-1.0696,-1.0723,-1.0725,-1.0781,-1.079,-1.0817,-1.087,-1.0882,-1.0897,-1.0884,-1.1004,-1.1005,-1.1007,-1.099,-1.0991,-1.0992,0,0,0,0,0,-1.0488,-1.052,-1.053,-1.0545,-1.0629,-1.0683,-1.0694,-1.0726,-1.0724,-1.0741,-1.0774,-1.0788,-1.0887,-1.0875,-1.0888,-1.0905,-1.1003,-1.1005,-1.1006,-1.099,-1.0991,-1.0992,0,0,0,0,0,0,-1.0461,-1.0528,-1.054,-1.0591,-1.0631,-1.0688,-1.0711,-1.0726,-1.0766,-1.0767,-1.0804,-1.0816,-1.0861,-1.0888,-1.0873,-1.0947,-1.0946,-1.095,-1.0928,-1.093,-1.0931,-1.0923,-1.0888,0,0,0,0,0,-1.0461,-1.0501,-1.0556,-1.0596,-1.0616,-1.066,-1.0684,-1.0706,-1.0748,-1.0765,-1.0802,-1.0841,-1.0881,-1.0907,-1.0947,-1.0994,-1.1006,-1.1012,-1.1012,-1.1013,-1.1016,-1.1043,-1.1046,-1.1013,-1.1013,-1.1013,0,0,-1.0461,-1.0503,-1.0525,-1.0592,-1.0625,-1.0664,-1.0674,-1.0714,-1.0743,-1.0771,-1.0819,-1.0847,-1.0894,-1.0941,-1.0964,-1.0965,-1.1028,-1.1015,-1.1015,-1.1018,-1.1045,-1.1048,-1.105,-1.1014,-1.1014,-1.1014,0,0,-1.0482,-1.0518,-1.0555,-1.0588,-1.0639,-1.0668,-1.0677,-1.0732,-1.0752,-1.0801,-1.0822,-1.0856,-1.0925,-1.0957,-1.0983,-1.1015,-1.1029,-1.1027,-1.1031,-1.1056,-1.1059,-1.1061,-1.1072,-1.1076,-1.103,-1.103,-1.103,0,-1.0476,-1.0537,-1.0571,-1.0612,-1.064,-1.0667,-1.0705,-1.0735,-1.0796,-1.0814,-1.0814,-1.0901,-1.0934,-1.0989,-1.0997,-1.1017,-1.1027,-1.1021,-1.1056,-1.1059,-1.1061,-1.1072,-1.1077,-1.1029,-1.1029,-1.1029,-1.1029,0,-1.0526,-1.0568,-1.0592,-1.0651,-1.0682,-1.072,-1.0759,-1.0786,-1.0805,-1.0833,-1.0882,-1.0923,-1.0971,-1.0986,-1.1004,-1.1044,-1.1043,-1.1049,-1.1048,-1.1063,-1.1074,-1.1079,-1.1028,-1.1029,-1.1029,-1.1029,0,0,-1.0533,-1.0611,-1.0619,-1.0646,-1.0704,-1.0737,-1.0775,-1.0824,-1.0846,-1.0886,-1.0919,-1.0977,-1.0983,-1.1011,-1.1033,-1.1055,-1.1078,-1.1058,-1.106,-1.106,-1.1123,-1.1118,-1.1123,-1.1087,-1.1088,-1.1089,-1.1119,0,-1.0561,-1.0634,-1.0666,-1.0723,-1.0762,-1.0788,-1.0822,-1.086,-1.0888,-1.0923,-1.0953,-1.0993,-1.0998,-1.1015,-1.1038,-1.107,-1.1091,-1.1068,-1.1117,-1.1118,-1.1105,-1.1129,-1.1124,-1.1151,-1.1124,-1.1125,-1.1125,0,-1.0604,-1.0646,-1.0708,-1.0761,-1.0778,-1.0808,-1.0855,-1.0889,-1.0932,-1.0951,-1.0983,-1.1003,-1.1044,-1.104,-1.1096,-1.108,-1.1102,-1.112,-1.1122,-1.1128,-1.1123,-1.1135,-1.1161,-1.1165,-1.1132,-1.1132,-1.1131,0,-1.0603,-1.0675,-1.0721,-1.0743,-1.0806,-1.0827,-1.0853,-1.0897,-1.0924,-1.0964,-1.0982,-1.1025,-1.1049,-1.1082,-1.1114,-1.1108,-1.1166,-1.1165,-1.1182,-1.1181,-1.1193,-1.1192,-1.1222,-1.1207,-1.1207,-1.1207,-1.1206,0,-1.0631,-1.0668,-1.0721,-1.0749,-1.0791,-1.0827,-1.0866,-1.0895,-1.0933,-1.0966,-1.0991,-1.1021,-1.1061,-1.1096,-1.1121,-1.1163,-1.1173,-1.1188,-1.1195,-1.1187,-1.1185,-1.1201,-1.12,-1.1208,-1.1207,-1.1207,-1.1207,0,-1.0637,-1.0674,-1.0726,-1.0782,-1.0797,-1.0825,-1.0872,-1.0899,-1.0928,-1.097,-1.0981,-1.1025,-1.1068,-1.1103,-1.1158,-1.1174,-1.1218,-1.1225,-1.1204,-1.1207,-1.1222,-1.122,-1.1264,-1.1272,-1.1251,-1.1251,-1.1251,0,-1.0653,-1.0682,-1.0741,-1.0766,-1.0793,-1.0832,-1.086,-1.0896,-1.0924,-1.0975,-1.0996,-1.1041,-1.1079,-1.1145,-1.1181,-1.1223,-1.1231,-1.1244,-1.1238,-1.1229,-1.1231,-1.1229,-1.1232,-1.1244,-1.1244,-1.1245,-1.1245,0,-1.0677,-1.0694,-1.0734,-1.078,-1.0813,-1.0851,-1.0889,-1.0908,-1.095,-1.098,-1.1024,-1.1054,-1.111,-1.1154,-1.12,-1.1226,-1.1242,-1.1246,-1.1252,-1.1244,-1.1231,-1.1238,-1.1206,-1.1245,-1.1245,-1.1245,-1.1245,-1.1245,-1.0689,-1.0715,-1.0761,-1.0805,-1.0837,-1.0872,-1.0901,-1.0934,-1.0972,-1.1022,-1.104,-1.1085,-1.1127,-1.1191,-1.1217,-1.1252,-1.1254,-1.1263,-1.1265,-1.1266,-1.1265,-1.1225,-1.1261,-1.1261,-1.1261,-1.1261,-1.1261,0,-1.0714,-1.0745,-1.0784,-1.0838,-1.0871,-1.0885,-1.0927,-1.0954,-1.0995,-1.1033,-1.107,-1.112,-1.1162,-1.1202,-1.1245,-1.1266,-1.1274,-1.1276,-1.1275,-1.1281,-1.1261,-1.1252,-1.1269,-1.1269,-1.1269,-1.1269,-1.1269,-1.1269,-1.0731,-1.0777,-1.0799,-1.0861,-1.0892,-1.0937,-1.0961,-1.0993,-1.1023,-1.1079,-1.1115,-1.1141,-1.1179,-1.1226,-1.1265,-1.1275,-1.129,-1.129,-1.1302,-1.1283,-1.1282,-1.1281,-1.1272,-1.1293,-1.1293,-1.1318,-1.1318,-1.1318]}]]